Miscellaneous Local Product
Issued by NWS Hastings, NE

Home | Current Version | Previous Version | Graphics & Text | Print | Product List | Glossary On
Versions: 1 2 3 4 5 6 7 8 9 10 11 12 13 14 15 16 17 18 19 20 21 22 23 24 25 26 27 28 29 30 31 32 33 34 35 36 37 38 39 40 41 42 43 44 45 46 47 48 49 50
000
AXUS43 KGID 260702
MISGRI

GID CWA HOURLY WEATHER ROUNDUP
NATIONAL WEATHER SERVICE HASTINGS NE
200 AM CDT SUN APR 26 2015

NOTE: "FAIR" INDICATES FEW OR NO CLOUDS BELOW 12,000 FEET WITH NO
SIGNIFICANT WEATHER AND/OR OBSTRUCTIONS TO VISIBILITY.

...SOUTH CENTRAL NEBRASKA...

CITY           SKY/WX    TMP DP  RH WIND       PRES   REMARKS
GRAND ISLAND   CLOUDY    47  44  90 E10       29.92R
HASTINGS       CLOUDY    47  43  86 E9        29.90R
KEARNEY        CLOUDY    46  43  87 E17       29.90S
ORD            CLOUDY    47  40  76 E12       29.90R
YORK           CLOUDY    48  45  87 E9        29.91S
AURORA         CLOUDY    47  46  96 E10       29.91R
LEXINGTON      CLOUDY    47  44  88 E12G17    29.89S
HOLDREGE       CLOUDY    46  44  93 E13       29.89R FOG
HEBRON         CLOUDY    47  45  91 E10       29.88S FOG

...NEBRASKA PANHANDLE...

CITY           SKY/WX    TMP DP  RH WIND       PRES   REMARKS
CHADRON        CLOUDY    49  48  97 N9        29.85R FOG
ALLIANCE       CLOUDY    50  47  89 S13       29.84R
SCOTTSBLUFF    LGT RAIN  50  47  89 E14       29.82F
SIDNEY         RAIN      47  45  93 E14       29.85F FOG

...WESTERN AND NORTH CENTRAL NEBRASKA...

CITY           SKY/WX    TMP DP  RH WIND       PRES   REMARKS
VALENTINE      CLOUDY    51  44  77 E7        29.90R
AINSWORTH      MOCLDY    46  44  91 SE12      29.90R
ONEILL         CLOUDY    50  45  81 SE9       29.92S
BROKEN BOW     CLOUDY    48  43  82 E10       29.89S
IMPERIAL       CLOUDY    47  44  90 E12       29.87S FOG
NORTH PLATTE   NOT AVBL
MCCOOK         CLOUDY    47  45  93 E14       29.86R FOG

...EASTERN NEBRASKA...

CITY           SKY/WX    TMP DP  RH WIND       PRES   REMARKS
NORFOLK        PTCLDY    42  38  85 CALM      29.94R
SO SIOUX CITY  MOCLDY    50  39  66 E8        29.96R
TEKAMAH        CLOUDY    47  42  83 NE7       29.94R
COLUMBUS       CLOUDY    48  39  71 E9        29.94R
ALBION         CLEAR     43  39  85 E7        29.93S
OMAHA EPPLEY   PTCLDY    47  41  80 NE6       29.93R
OFFUTT AFB     MOCLDY    46  42  84 NE6       29.91R
MILLARD        PTCLDY    49  42  74 E3        29.92R
LINCOLN        CLOUDY    49  44  83 E12       29.92S
NEBRASKA CITY  CLOUDY    48  44  85 NE9       29.90R
BEATRICE       CLOUDY    47  46  96 NE8       29.89S FOG
FALLS CITY     CLOUDY    48  45  89 E13       29.88R FOG

...NORTHERN KANSAS...

CITY           SKY/WX    TMP DP  RH WIND       PRES   REMARKS
GOODLAND       FOG       47  47 100 E18G28    29.82R VSB 1/4
HILL CITY      CLOUDY    49  46  90 E15       29.85S
NORTON         CLOUDY    48  45  87 E12       29.86S FOG
PHILLIPSBURG   HVY RAIN  52  52 100 NE8       29.86F
SMITH CENTER   CLOUDY    46  45  93 NE15      29.87S
HAYS           CLOUDY    48  43  81 E14       29.82S
RUSSELL        CLOUDY    49  49 100 NE15      29.80F FOG
CONCORDIA      CLOUDY    48  45  89 NE10      29.86R FOG
SALINA         CLOUDY    51  45  79 NE12      29.83S
TOPEKA         CLOUDY    50  46  86 N7        29.85S



USA.gov is the U.S. government's official web portal to all federal, state and local government web resources and services.